Lakeland Region, FL

10:34 PM EDT on May 29, 2017 (GMT -0400)
Lakeland Linder Regional

Weather History for KLAL - April, 2014

Change the Weather History Date:

Saturday, April 19, 2014

  Actual Average Record
Temperature  
Mean Temperature 68 °F -  
Max Temperature 75 °F 80 °F 93 °F (2002)
Min Temperature 60 °F 60 °F 35 °F (2007)
Cooling Degree Days 2    
Growing Degree Days 18 (Base 50)    
Moisture  
Dew Point 62 °F    
Average Humidity 87    
Maximum Humidity 100    
Minimum Humidity 60    
Precipitation  
Precipitation 0.00 in - - ()
Sea Level Pressure  
Sea Level Pressure 29.94 in    
Wind  
Wind Speed 5 mph (WSW)    
Max Wind Speed 14 mph    
Max Gust Speed 22 mph    
Visibility 10 miles    
Events Rain    
Averages and records for this station are not official NWS values.
T = Trace of Precipitation, MM = Missing Value Source: NWS Daily Summary

Daily Weather History Graph

Daily Weather History Graph

Search for Another Location

Airport or City:

Trip Planner

Search our weather history database for the weather conditions in past years. The results will help you decide how hot, cold, wet, or windy it might be!

Date:

Astronomy

Apr. 19, 2014 Rise Set
Actual Time 6:59 AM EDT 7:55 PM EDT
Civil Twilight 6:34 AM EDT 8:19 PM EDT
Nautical Twilight 6:06 AM EDT 8:48 PM EDT
Astronomical Twilight 5:37 AM EDT 9:17 PM EDT
Moon No Moon Rise 10:27 AM EDT (4/19)
Length of Visible Light 13h 44m
Length of Day
12h 56m
Waning Gibbous, 79% of the Moon is Illuminated
Apr 19
Waning Gibbous
Apr 22
Last Quarter
Apr 29
New
May 6
First Quarter
May 14
Full

Hourly Weather History & Observations

Time (EDT) Temp. Dew Point Humidity Pressure Visibility Wind Dir Wind Speed Gust Speed Precip Events Conditions
12:15 AM 64.4 °F 64.4 °F 100% 29.95 in 10.0 mi Calm Calm - N/A   Mostly Cloudy
12:35 AM 64.4 °F 64.4 °F 100% 29.94 in 10.0 mi Calm Calm - N/A   Mostly Cloudy
12:55 AM 64.4 °F 64.4 °F 100% 29.94 in 10.0 mi SSW 3.5 mph - N/A   Scattered Clouds
1:15 AM 64.4 °F 64.4 °F 100% 29.94 in 10.0 mi South 3.5 mph - N/A   Clear
1:35 AM 64.4 °F 64.4 °F 100% 29.94 in 7.0 mi Calm Calm - N/A   Scattered Clouds
1:55 AM 64.4 °F 64.4 °F 100% 29.93 in 5.0 mi Calm Calm - N/A   Scattered Clouds
2:15 AM 66.2 °F 66.2 °F 100% 29.93 in 7.0 mi SSW 4.6 mph - N/A   Scattered Clouds
2:35 AM 66.2 °F 66.2 °F 100% 29.93 in 10.0 mi SSW 5.8 mph - N/A   Clear
2:55 AM 66.2 °F 66.2 °F 100% 29.92 in 10.0 mi SW 4.6 mph - N/A   Scattered Clouds
3:15 AM 66.2 °F 66.2 °F 100% 29.90 in 10.0 mi SW 5.8 mph - N/A   Scattered Clouds
3:35 AM 66.2 °F 66.2 °F 100% 29.90 in 10.0 mi SW 4.6 mph - N/A   Clear
3:55 AM 66.2 °F 66.2 °F 100% 29.90 in 10.0 mi Calm Calm - N/A   Clear
4:15 AM 64.4 °F 64.4 °F 100% 29.89 in 10.0 mi SSW 3.5 mph - N/A   Clear
4:35 AM 64.4 °F 64.4 °F 100% 29.89 in 7.0 mi SSW 3.5 mph - N/A   Clear
4:55 AM 64.4 °F 64.4 °F 100% 29.89 in 5.0 mi SSW 4.6 mph - N/A   Clear
5:15 AM 64.4 °F 64.4 °F 100% 29.89 in 7.0 mi SW 4.6 mph - N/A   Mostly Cloudy
5:35 AM 66.2 °F 66.2 °F 100% 29.90 in 10.0 mi SW 6.9 mph - N/A   Overcast
5:50 AM 68.0 °F 68.0 °F 100% 29.91 in 7.0 mi SW 5.8 mph - N/A   Mostly Cloudy
7:50 AM 66.2 °F 66.2 °F 100% 29.93 in 7.0 mi SW 4.6 mph - N/A   Scattered Clouds
8:50 AM 75.2 °F 64.4 °F 69% 29.95 in 12.0 mi SW 5.8 mph - N/A   Mostly Cloudy
9:50 AM 69.8 °F 62.6 °F 78% 29.95 in 12.0 mi WSW 13.8 mph - N/A   Mostly Cloudy
10:45 AM 69.8 °F 62.6 °F 78% 29.95 in 10.0 mi West 9.2 mph - N/A   Overcast
11:45 AM 71.6 °F 59.0 °F 64% 29.95 in 10.0 mi West 13.8 mph 19.6 mph N/A   Overcast
12:50 PM 71.6 °F 59.0 °F 64% 29.95 in 12.0 mi West 12.7 mph 21.9 mph N/A   Overcast
1:50 PM 73.4 °F 59.0 °F 61% 29.95 in 15.0 mi WNW 13.8 mph 20.7 mph N/A   Overcast
2:50 PM 71.6 °F 57.2 °F 60% 29.94 in 10.0 mi WSW 11.5 mph 18.4 mph N/A   Mostly Cloudy
4:45 PM 69.8 °F 55.4 °F 60% 29.93 in 10.0 mi West 13.8 mph 19.6 mph N/A   Overcast
5:45 PM 68.0 °F 55.4 °F 64% 29.94 in 10.0 mi West 13.8 mph 18.4 mph N/A   Overcast
6:51 PM 66.2 °F 55.4 °F 68% 29.95 in 15.0 mi WNW 13.8 mph - N/A   Overcast
8:53 PM 64.4 °F 55.4 °F 73% 29.97 in 15.0 mi WNW 11.5 mph - N/A   Overcast
10:15 PM 62.6 °F 55.4 °F 77% 29.99 in 10.0 mi WNW 8.1 mph - N/A   Overcast
10:35 PM 60.8 °F 55.4 °F 82% 29.99 in 7.0 mi NW 8.1 mph - N/A Rain Light Rain
10:55 PM 60.8 °F 55.4 °F 82% 30.00 in 10.0 mi NW 8.1 mph - N/A   Overcast
11:15 PM 60.8 °F 55.4 °F 82% 30.01 in 10.0 mi NNW 5.8 mph - N/A   Overcast
11:35 PM 60.8 °F 57.2 °F 88% 30.01 in 10.0 mi WNW 5.8 mph - N/A   Overcast
11:55 PM 60.8 °F 57.2 °F 88% 30.01 in 10.0 mi NW 3.5 mph - N/A   Overcast